• Join FlightAware (Why Join?)
  • Login
  • US Flag 
04:35PM EDT


 

Airport Tracker/Info


-or-


 

Live Flight TrackerFlight Track Log ✈ N724AE ✈ 12-Apr-2013 ✈ KLAW - KDFW

Flight Track Log - Related Links

Times and Time Zones

All times are in EDT time to prevent confusion due to time zone crossing. See the N724AE flight status page for this flight to view local times or setup timezone preferences in your user account.

Time Position Orientation Groundspeed Altitude Reporting Facility
EDT Latitude Longitude Course Direction KTS MPH feet Rate Location/Type
03:40PM 34.5828 -98.3819 155° Southeast 202 232 3,800  Level Fort Worth Center
03:41PM 34.5100 -98.3408 155° Southeast 243 280 7,900 2,940 Climbing Fort Worth Center
03:42PM 34.3513 -98.2782 165° South  Level FlightAware Approximate
03:42PM 34.4414 -98.3050 157° South 258 297 10,400  Level Fort Worth Center
03:43PM 34.2785 -98.2412 151° Southeast  Level FlightAware Approximate
03:43PM 34.3519 -98.2611 158° South 303 349 12,100  Level Fort Worth Center
03:44PM 34.2085 -98.1955 155° Southeast  Level FlightAware Approximate
03:44PM 34.2606 -98.2100 155° Southeast 343 395 14,200  Level Fort Worth Center
03:45PM 34.1363 -98.1553 155° Southeast  Level FlightAware Approximate
03:45PM 34.1628 -98.1464 152° Southeast 375 432 15,600  Level Fort Worth Center
03:46PM 34.0631 -98.0778 150° Southeast 407 468 17,100 1,440 Climbing Fort Worth Center
03:47PM 33.9611 -98.0119 152° Southeast 418 481 18,500 900 Climbing Fort Worth Center
03:48PM 33.8653 -97.9514 152° Southeast 418 481 19,000 180 Climbing Fort Worth Center
03:49PM 33.7592 -97.8806 151° Southeast 429 494 18,900 -1,500 Descending Fort Worth Center
03:50PM 33.6592 -97.8203 153° Southeast 421 484 16,100 -3,180 Descending Fort Worth Center
03:51PM 33.5467 -97.7475 152° Southeast 416 479 12,500 -2,460 Descending Fort Worth Center
03:52PM 33.4550 -97.6897 152° Southeast 396 456 11,200 -1,200 Descending Fort Worth Center
03:53PM 33.3800 -97.6372 150° Southeast 334 384 10,200 -1,020 Descending Fort Worth Center
03:54PM 33.3175 -97.5675 137° Southeast 312 359 9,200 -1,020 Descending Fort Worth Center
03:55PM 33.2656 -97.4956 131° Southeast 294 338 8,200 -960 Descending Fort Worth Center
03:56PM 33.2342 -97.4183 116° Southeast 289 333 7,300 -1,080 Descending Fort Worth Center
03:57PM 33.1883 -97.3364 124° Southeast 276 318 6,100 -1,080 Descending Fort Worth Center
03:58PM 33.1528 -97.2694 122° Southeast 271 312 5,200 -1,020 Descending Fort Worth Center
03:59PM 33.1128 -97.1928 122° Southeast 260 299 4,100 -1,140 Descending Fort Worth Center